Location: Le Pont-de-Coulogne
(50.9242°N, 1.8700°E)
Time: 05:35:01
(UTC+00:00)

Cosmos 1933 - Pass Details

Date: 15 May 2026
Orbit: 508 x 512 km, 82.5° (Epoch: 6 June)

Event Time Altitude Azimuth Distance (km) Brightness Sun altitude
Exits shadow 21:19:20 - 197° (SSW) 1,919 5.7 -12.7°
Reaches altitude 10° 21:19:48 10° 198° (SSW) 1,730 5.5 -12.8°
Maximum altitude 21:23:34 69° 281° (WNW) 554 3.4 -13.1°
Drops below altitude 10° 21:27:24 10° 6° (N) 1,748 6.6 -13.5°
Sets 21:29:33 0° 9° (N) 2,640 7.6 -13.6°
